Location: Arpaise
(41.0333°N, 14.7333°E)
Time: 17:09:37
(UTC+00:00)

Gbstr 26 Del rocket - Pass Details

Date: 05 July 2020
Orbit: 492 x 1264 km, 51.8° (Epoch: 10 August)

Event Time Altitude Azimuth Distance (km) Brightness Sun altitude
Exits shadow 22:49:26 31° 52° (NE) 949 4.2 -26.2°
Drops below altitude 10° 22:51:41 10° 53° (NE) 1,835 5.9 -26.2°
Sets 22:54:04 0° 54° (NE) 2,822 6.9 -26.2°
